Weather in Chemodanovka

Russia / Penza Oblast     53°13′39″N   45°14′56″E
temp.,
°C
wind,
m/s
gust,
m/s
humid.,
%
clouds,
%
prec.,
mm/h
press.,
hPa
HPBL,
m
3 march, wed
wed300:00−1wnw399699 0.1 1005384
03:00−5wnw389798 0.2 1006243
06:00−5nw399796 0.4 1006388
09:00−3nnw598898 1.1 1008843
12:00−3nw5886100 0.1 1009889
15:00−4nw5987100 0.3 1010821
18:00−5wnw3992100 0.1 1011892
21:00−7wnw3989100 0.1 1013262
4 march, thu
thu400:00−8wsw3896100 0.1 1011244
03:00−6wsw41195100 0.1 1010483
06:00−3wsw51293100 0.1 1007908
09:00−2wsw61390100 0.3 1005829
12:000wsw71588100 0.2 10021137
15:00+1w71488100 0.2 10021227
18:000w51196100 0.4 1003881
21:00−1wsw41197100 1.4 1003674
5 march, fri
fri500:00−1sw41197100 0.8 1002638
03:00−1sw41194100 1.1 1000621
06:000wsw4998100 0.6 1000627
09:00−1nnw4798100 2.1 1001429
12:00−1nnw468999 0.3 1003716
15:00−2nnw468695 0.3 1007779
18:00−7nnw229255 0.0 101021
21:00−10sw119429 0.0 101321
6 march, sat
sat600:00−11sw129435 0.0 101321
03:00−10sw229668 0.0 101421
06:00−10w1296100 0.0 101321
09:00−9nw2593100 0.0 1013270
12:00−6nw3688100 0.0 1013592
15:00−6nw468387 0.0 1013745
18:00−11wnw239475 0.0 101421
21:00−13wnw259648 0.0 101599
7 march, sun
sun700:00−15wnw229788 0.0 101629
03:00−17w129655 0.0 101620
06:00−18sw22950 0.0 101620
09:00−13sw37870 0.0 1015285
12:00−9sw5118250 0.0 1012735
15:00−7sw7148275 0.0 10071037
18:00−6sw71790100 0.3 10031396
21:00−5sw81791100 1.0 10001262